TimeCDT,TemperatureF,Dew PointF,Humidity,Sea Level PressureIn,VisibilityMPH,Wind Direction,Wind SpeedMPH,Gust SpeedMPH,PrecipitationIn,Events,Conditions,WindDirDegrees,DateUTC
12:53 AM,48.0,32.0,54,30.19,10.0,North,6.9,-,N/A,,Clear,350,2013-05-12 05:53:00
1:53 AM,46.9,30.9,54,30.20,10.0,North,4.6,-,N/A,,Clear,350,2013-05-12 06:53:00
2:53 AM,44.1,32.0,63,30.20,10.0,NNW,3.5,-,N/A,,Clear,330,2013-05-12 07:53:00
3:53 AM,43.0,32.0,65,30.21,10.0,North,6.9,-,N/A,,Clear,350,2013-05-12 08:53:00
4:53 AM,42.1,30.0,62,30.21,10.0,NNW,4.6,-,N/A,,Clear,340,2013-05-12 09:53:00
5:53 AM,39.9,30.9,70,30.22,10.0,NW,3.5,-,N/A,,Clear,310,2013-05-12 10:53:00
6:53 AM,39.9,34.0,79,30.25,10.0,Calm,Calm,-,N/A,,Clear,0,2013-05-12 11:53:00
7:53 AM,46.9,33.1,59,30.25,10.0,Calm,Calm,-,N/A,,Clear,0,2013-05-12 12:53:00
8:53 AM,52.0,30.0,43,30.27,10.0,Calm,Calm,-,N/A,,Clear,0,2013-05-12 13:53:00
9:53 AM,54.0,26.1,34,30.28,10.0,Calm,Calm,-,N/A,,Clear,0,2013-05-12 14:53:00
10:53 AM,57.9,28.0,32,30.27,10.0,NNW,4.6,-,N/A,,Clear,330,2013-05-12 15:53:00
11:53 AM,60.1,28.0,30,30.25,10.0,North,10.4,16.1,N/A,,Clear,350,2013-05-12 16:53:00
12:53 PM,62.1,30.9,31,30.23,10.0,North,10.4,-,N/A,,Clear,360,2013-05-12 17:53:00
1:53 PM,62.1,28.9,29,30.22,10.0,Variable,6.9,16.1,N/A,,Clear,0,2013-05-12 18:53:00
2:53 PM,64.0,28.9,27,30.20,10.0,North,10.4,-,N/A,,Clear,350,2013-05-12 19:53:00
3:53 PM,66.0,28.9,25,30.18,10.0,NNW,13.8,19.6,N/A,,Clear,330,2013-05-12 20:53:00
4:53 PM,64.9,27.0,24,30.18,10.0,NNW,9.2,-,N/A,,Clear,330,2013-05-12 21:53:00
5:53 PM,64.9,28.0,25,30.17,10.0,Calm,Calm,-,N/A,,Clear,0,2013-05-12 22:53:00
6:53 PM,64.0,28.0,26,30.16,10.0,Variable,3.5,-,N/A,,Clear,0,2013-05-12 23:53:00
7:53 PM,57.9,32.0,37,30.15,10.0,West,3.5,-,N/A,,Clear,270,2013-05-13 00:53:00
8:53 PM,53.1,35.1,50,30.17,10.0,Calm,Calm,-,N/A,,Clear,0,2013-05-13 01:53:00
9:53 PM,48.9,36.0,61,30.18,10.0,Calm,Calm,-,N/A,,Clear,0,2013-05-13 02:53:00
10:53 PM,46.0,37.0,71,30.19,10.0,Calm,Calm,-,N/A,,Clear,0,2013-05-13 03:53:00
11:53 PM,50.0,41.0,71,30.19,10.0,Calm,Calm,-,N/A,,Overcast,0,2013-05-13 04:53:00